GFSFLT1_925_temp_060.txt.gz
Temp
33 37 36 35 33 32 31 31 30 28 26 25 24 24 24 25 25 26 26 27 29 28 28 28 27 26 26 25 25 25 24 24 24
27 25 28 35 34 33 31 31 30 29 27 25 25 25 24 24 25 26 26 27 28 28 29 28 28 27 26 26 25 25 25 25 25
28 27 24 26 35 34 32 31 31 30 28 26 25 24 25 24 24 25 26 27 27 28 28 28 27 26 26 26 26 26 25 25 26
27 28 25 22 25 35 33 32 31 30 29 27 26 25 25 25 24 25 25 26 27 27 28 28 28 27 27 26 26 26 26 26 26
33 30 27 23 21 25 34 33 32 31 30 29 27 26 25 25 25 24 25 25 27 27 27 27 27 27 27 26 26 26 26 25 26
34 29 27 25 26 27 35 34 33 32 31 30 28 27 26 26 25 25 25 25 26 26 26 26 26 26 26 26 26 26 26 25 25
39 33 28 29 31 31 36 34 33 33 32 31 30 28 27 26 26 26 25 25 25 26 26 26 26 26 26 25 25 26 26 26 25
37 37 37 38 37 34 35 34 33 33 33 32 31 30 28 27 27 26 26 26 25 25 26 26 25 25 26 25 25 25 26 26 26
29 37 37 37 36 35 32 34 33 33 32 32 32 31 29 28 27 26 26 26 26 25 26 26 25 25 25 26 25 26 26 26 26
25 31 34 32 33 34 25 26 26 33 32 32 32 31 30 29 28 27 26 26 26 26 25 26 25 25 25 25 26 26 27 27 26
23 26 30 30 31 31 30 23 24 33 33 32 32 31 30 30 29 28 27 26 26 26 26 25 26 25 25 25 25 26 27 28 27
20 19 23 29 29 29 29 29 30 31 34 32 31 31 30 30 29 28 27 27 26 26 26 26 26 25 25 25 26 26 26 27 27
22 19 22 24 25 25 27 28 29 30 31 33 31 31 31 30 29 29 27 27 26 26 26 26 26 26 26 26 25 26 26 26 26
19 20 19 20 21 23 25 27 29 29 30 31 32 31 31 30 30 29 28 27 26 26 26 26 26 26 26 26 26 26 26 26 26
18 18 17 17 18 20 24 26 28 29 29 30 30 31 30 30 30 29 29 27 27 26 26 26 26 26 27 27 26 26 26 26 26
17 17 16 16 16 18 18 19 22 26 29 30 29 31 30 30 29 29 29 28 27 26 26 26 26 27 26 27 27 26 26 26 26
15 16 16 15 15 16 16 16 18 20 21 27 30 30 29 29 29 28 28 28 27 26 26 26 27 27 28 27 28 29 27 27 26
14 15 14 15 15 14 14 15 17 17 18 20 28 30 29 29 28 28 27 28 27 27 27 27 27 28 28 29 28 29 29 28 27
14 14 14 15 14 14 14 14 14 15 16 17 21 29 29 29 29 28 27 27 25 27 28 28 28 28 29 27 28 28 30 31 29
13 13 13 14 14 14 13 13 13 13 15 16 17 21 28 28 28 28 27 27 26 25 23 26 27 29 29 27 27 27 27 28 29

GFSFLT1_925_temp_063.txt.gz
Temp
27 25 27 31 29 30 29 27 26 25 24 24 24 25 25 25 26 27 27 26 27 26 26 26 26 26 25 25 25 25 24 24 24
26 26 24 27 30 30 30 28 26 25 24 24 23 24 25 25 25 26 27 27 27 27 27 27 27 26 26 26 25 25 25 25 25
25 24 23 22 23 29 29 30 27 26 24 24 23 23 24 24 25 26 26 27 27 27 28 27 27 26 26 26 25 25 25 25 25
27 24 23 22 22 24 27 28 29 27 25 24 24 23 23 23 24 25 26 26 27 27 28 27 28 26 26 26 25 25 25 25 25
27 24 25 23 23 23 24 27 29 28 27 24 24 23 24 23 23 24 24 26 26 27 27 27 27 27 26 26 25 26 25 25 25
28 27 25 25 24 25 27 24 25 30 28 26 25 24 23 24 23 23 24 24 26 27 27 27 27 26 26 26 26 26 26 25 25
27 27 26 25 27 26 27 28 26 30 29 28 25 25 24 24 24 23 23 24 24 26 27 27 27 27 26 27 26 26 26 25 25
26 25 26 25 27 26 23 26 27 30 30 29 28 26 25 24 24 24 23 23 24 25 25 26 26 26 26 26 26 26 26 25 25
24 21 20 22 25 24 26 27 29 27 30 30 29 28 26 25 25 24 24 24 24 24 24 25 26 26 26 25 25 26 26 26 25
21 20 20 21 23 21 25 24 25 25 25 30 29 29 27 26 25 25 24 24 24 24 24 24 24 25 24 25 25 25 25 25 25
19 19 19 19 20 21 22 23 22 22 23 28 25 28 28 26 26 25 25 25 24 24 24 24 24 24 24 24 24 25 25 25 25
18 18 18 18 18 19 20 22 23 25 26 27 26 25 27 27 26 25 25 25 25 24 24 24 24 24 24 24 24 24 25 25 26
17 18 18 16 17 18 18 20 21 24 26 26 25 28 28 28 27 26 25 25 25 25 25 25 24 24 24 24 24 24 25 25 25
17 17 17 16 16 16 17 18 18 22 23 25 28 28 29 28 27 27 26 26 25 25 25 25 25 24 24 24 24 24 24 25 25
16 16 16 16 15 15 16 16 16 18 20 20 24 29 29 29 28 27 26 26 25 25 25 25 25 25 25 24 24 24 24 25 25
15 15 15 15 15 15 15 15 15 16 16 17 19 22 28 29 28 28 27 26 25 25 25 25 25 25 25 25 25 25 25 25 25
15 14 14 14 14 14 14 14 14 14 15 16 16 19 25 29 27 27 28 26 26 25 25 25 25 25 25 25 25 25 25 25 25
14 13 14 14 14 14 14 14 13 13 13 14 16 18 23 27 28 27 27 27 26 26 26 26 25 26 25 26 25 26 26 25 26
13 13 13 13 14 13 13 13 13 13 13 13 14 16 20 26 27 27 27 27 26 26 26 26 26 26 26 26 27 26 26 27 27
13 13 12 12 13 12 12 12 11 12 12 13 13 14 16 19 26 27 27 26 26 23 24 26 26 26 26 27 27 27 28 28 27

GFSFLT1_925_temp_069.txt.gz
Temp
26 26 26 27 27 26 25 24 23 23 23 23 24 25 26 26 25 25 25 25 25 25 25 25 25 24 24 24 24 24 24 24 24
25 25 26 27 27 26 25 25 24 23 23 23 24 25 25 26 25 25 25 25 25 25 25 25 25 25 25 24 24 24 24 24 24
25 25 24 25 27 26 26 25 24 24 24 23 25 25 25 26 26 26 25 25 25 25 25 25 25 25 25 25 24 24 24 24 24
23 25 25 24 26 27 26 26 25 24 23 23 23 23 24 24 25 26 25 25 25 25 25 25 25 25 25 25 25 24 24 24 24
23 25 24 23 24 26 26 25 25 24 24 23 23 23 23 24 25 25 26 25 25 25 25 25 25 25 25 25 25 25 24 24 24
21 21 21 20 20 20 22 23 25 24 24 23 23 23 23 23 23 24 25 25 26 25 25 25 25 25 25 25 25 25 25 25 24
19 19 19 19 19 20 21 23 25 24 24 23 23 23 22 22 23 23 24 26 26 26 26 25 25 25 25 25 26 26 26 25 25
19 18 18 18 18 18 19 20 23 24 25 24 24 23 22 22 22 23 24 24 25 26 26 26 26 25 25 25 25 25 26 26 25
17 17 17 17 17 18 18 18 19 20 23 25 24 23 23 23 22 22 23 23 24 24 25 26 25 25 25 25 25 25 25 26 25
15 16 16 16 16 16 16 17 18 18 20 22 24 23 23 22 22 22 22 23 23 23 24 24 24 24 24 24 25 25 25 25 25
14 15 15 15 15 15 15 16 17 18 19 20 21 23 23 23 23 22 22 22 22 22 22 23 23 23 23 23 24 25 25 25 25
13 14 15 14 15 15 15 16 16 17 19 19 20 21 22 23 23 22 22 22 22 22 22 22 22 22 23 23 23 23 24 25 25
12 12 14 15 15 15 15 15 14 16 17 17 17 18 19 21 22 23 22 22 22 22 22 22 22 22 22 23 23 23 23 23 23
11 11 13 15 15 14 15 15 15 15 15 15 15 16 17 19 20 22 23 23 23 22 22 22 22 22 22 22 23 23 23 23 23
10 10 11 14 14 14 15 14 14 14 15 15 14 16 16 16 17 19 21 23 24 23 23 22 22 22 22 22 22 23 23 23 23
10 10 11 12 13 13 14 14 14 13 14 14 14 14 16 16 17 17 19 21 24 24 23 23 23 22 22 22 22 22 23 23 23
9 10 10 11 13 13 14 14 13 13 14 13 12 12 14 15 16 16 17 20 21 24 23 22 22 22 23 23 23 22 22 23 23
8 9 10 11 12 13 13 13 13 12 12 12 12 12 13 14 16 15 16 17 20 21 23 23 23 23 24 23 23 24 23 23 23
8 9 10 11 13 12 12 12 12 12 12 11 10 10 11 12 13 14 14 16 18 21 23 24 24 24 24 24 24 24 24 24 23
9 9 10 11 12 11 11 11 11 10 10 11 11 10 10 11 12 13 14 14 16 19 23 24 25 25 24 25 25 25 24 24 24

GFSFLT1_925_temp_072.txt.gz
Temp
25 25 25 26 25 25 24 23 23 23 23 23 24 24 25 25 25 25 25 25 25 25 25 25 25 24 24 24 24 24 24 24 24
23 24 25 25 25 25 24 24 23 23 23 23 24 24 25 25 25 25 25 25 25 25 25 25 25 25 24 24 24 23 24 23 23
21 23 23 24 25 25 25 24 23 23 23 23 24 24 25 25 25 25 25 25 25 25 25 25 25 25 25 24 24 24 24 24 23
20 21 23 23 24 25 25 24 24 23 23 23 23 23 23 24 25 25 25 25 25 25 25 25 25 24 24 25 25 25 25 24 24
19 20 22 22 22 24 25 25 24 23 23 22 23 23 23 24 25 25 25 25 26 25 25 25 25 24 24 24 25 25 24 24 24
18 18 18 19 19 20 22 23 24 24 23 23 22 22 22 23 24 25 25 25 25 25 25 25 25 25 24 24 25 25 25 24 24
18 17 17 17 17 17 18 20 22 24 24 23 23 23 22 23 23 23 25 26 25 25 25 25 26 26 25 25 25 25 25 25 24
17 17 17 17 17 17 17 17 18 20 22 23 23 23 22 23 23 23 23 23 24 25 25 25 25 26 26 25 25 25 25 25 25
15 15 16 16 16 16 16 16 17 18 18 20 22 22 22 23 22 22 23 23 23 24 24 24 24 25 25 26 25 26 26 26 25
13 13 14 15 15 15 15 15 16 16 18 19 20 21 22 22 22 22 22 23 22 22 23 24 23 24 24 25 25 26 26 26 25
12 12 12 13 14 14 15 15 15 16 18 19 20 20 21 22 22 22 22 22 22 22 22 22 23 23 24 24 24 25 25 26 25
11 11 11 11 13 14 14 15 15 16 16 17 18 18 19 21 21 21 21 21 21 21 21 22 22 22 23 23 24 24 24 24 24
10 10 10 11 11 13 14 14 15 15 15 16 15 16 17 19 20 20 21 21 22 22 21 21 21 22 22 23 23 24 24 23 22
9 9 10 10 11 12 13 14 14 14 14 14 15 16 16 18 19 19 20 20 21 21 21 21 21 21 22 22 22 24 23 23 22
9 9 9 10 10 11 12 13 14 13 13 13 13 15 16 16 18 19 20 21 21 21 21 21 21 21 21 21 22 22 23 23 22
9 9 10 9 10 10 12 12 13 13 13 13 12 13 15 16 15 17 18 19 18 19 20 21 21 21 21 21 21 21 22 22 23
8 8 9 9 9 9 10 12 13 13 12 12 12 12 12 14 16 15 16 16 18 19 20 21 22 22 22 22 22 22 22 22 22
8 8 8 8 8 9 10 11 13 14 12 11 10 10 11 12 13 13 14 14 16 18 20 20 21 22 22 22 21 22 22 22 22
8 8 8 8 8 9 10 11 13 14 12 10 9 8 10 11 11 12 14 14 15 17 18 21 21 21 22 22 23 23 23 23 22
7 8 8 9 9 9 10 11 11 12 11 11 9 7 8 10 10 11 11 13 13 14 17 19 22 21 22 22 23 23 23 23 23

GFSFLT1_925_temp_075.txt.gz
Temp
29 29 29 29 28 27 26 25 24 24 23 22 22 22 23 23 22 23 24 24 24 24 24 24 24 24 24 24 24 24 24 23 23
23 27 29 29 28 27 26 25 24 24 23 23 22 23 22 23 23 23 23 23 24 24 25 24 25 24 24 24 24 24 24 23 23
21 23 26 28 29 27 26 26 25 24 24 23 23 23 23 22 22 22 22 24 24 24 24 25 23 24 24 24 24 24 24 23 23
19 23 26 27 28 27 26 26 26 25 24 23 23 23 23 23 23 23 22 22 24 24 25 25 25 24 24 24 24 24 24 24 22
19 20 21 24 25 26 26 25 26 25 25 24 23 23 22 22 23 23 22 22 23 24 24 25 25 25 24 23 23 24 24 24 23
18 18 19 19 19 20 22 24 25 25 23 25 24 23 22 22 22 22 23 22 23 24 24 24 24 24 25 24 23 23 24 24 24
18 17 17 17 17 17 17 18 20 22 23 24 24 24 23 22 23 23 23 23 23 23 25 24 23 24 24 25 24 23 23 23 23
18 17 17 17 16 16 16 16 17 18 20 20 22 24 24 24 22 23 24 23 23 23 23 24 24 23 23 23 24 24 24 24 23
18 17 17 17 16 16 16 15 16 16 17 18 19 20 23 23 23 22 22 22 22 23 23 22 23 22 23 23 24 25 25 25 24
16 16 16 16 16 16 15 15 15 15 15 18 19 20 21 22 22 22 22 22 22 22 22 22 22 22 22 22 23 24 24 25 25
15 15 15 15 15 15 15 16 15 14 15 16 18 20 20 21 21 22 22 22 22 21 22 22 22 22 22 22 23 24 25 25 25
14 14 14 14 14 14 14 16 15 15 15 16 15 17 18 18 19 21 22 22 22 22 21 21 21 22 22 21 22 24 25 24 22
13 13 13 13 13 13 14 15 15 15 16 16 16 14 14 15 17 18 20 22 22 22 21 22 22 22 22 22 22 23 24 24 22
12 12 12 11 12 13 13 13 14 15 15 15 14 14 14 15 16 17 18 19 21 21 21 21 22 22 22 22 22 22 23 23 22
12 12 11 11 12 12 12 12 13 14 15 14 13 13 14 14 14 15 16 18 19 19 20 20 21 21 22 23 22 21 22 23 23
12 11 11 11 11 11 12 12 12 13 14 14 13 12 12 13 14 14 15 16 17 19 20 21 22 23 22 23 24 23 22 21 23
11 11 11 11 10 11 11 11 11 12 13 13 12 12 12 12 13 14 14 14 15 16 18 21 22 22 23 24 24 24 24 22 21
10 9 10 10 10 10 10 11 11 11 13 12 12 12 12 12 13 13 14 15 15 16 17 17 19 20 21 23 24 24 24 24 23
7 8 8 8 9 9 9 10 11 11 12 11 11 12 12 13 12 12 13 12 15 15 16 19 18 18 18 20 22 23 23 23 22
8 8 7 7 7 7 8 7 8 10 9 8 9 10 10 11 11 12 12 13 13 13 15 16 17 18 20 20 20 21 22 22 21